Location: Gombori
(14.9797°N, 2.9419°W)
Time: 08:20:31
(UTC+00:00)

Cosmos 1892 - Pass Details

Date: 29 July 2021
Orbit: 503 x 521 km, 82.5° (Epoch: 22 September)

Event Time Altitude Azimuth Distance (km) Brightness Sun altitude
Rises 19:17:22 0° 193° (SSW) 2,615 6.2 -8.7°
Reaches altitude 10° 19:19:32 10° 197° (SSW) 1,727 5.3 -9.2°
Maximum altitude 19:23:13 53° 275° (W) 631 3.6 -10.0°
Drops below altitude 10° 19:26:55 10° 353° (N) 1,718 5.8 -10.8°
Sets 19:29:04 0° 358° (N) 2,601 6.6 -11.3°
